Tacoma, WA

10:53 AM PST on December 10, 2016 (GMT -0800)
McChord Air Force Base

Weather History for KTCM - October, 2012

Change the Weather History Date:

Wednesday, October 17, 2012

  Actual Average Record
Temperature  
Mean Temperature 48 °F -  
Max Temperature 58 °F 58 °F 73 °F (2002)
Min Temperature 37 °F 39 °F 31 °F (2010)
Degree Days  
Heating Degree Days 18    
Moisture  
Dew Point 40 °F    
Average Humidity 88    
Maximum Humidity 100    
Minimum Humidity 55    
Precipitation  
Precipitation 0.00 in - - ()
Sea Level Pressure  
Sea Level Pressure 30.30 in    
Wind  
Wind Speed 0 mph (North)    
Max Wind Speed 7 mph    
Max Gust Speed -    
Visibility 8 miles    
Events      
Averages and records for this station are not official NWS values.
T = Trace of Precipitation, MM = Missing Value Source: NWS Daily Summary

Daily Weather History Graph

Daily Weather History Graph

Search for Another Location

Airport or City:

Trip Planner

Search our weather history database for the weather conditions in past years. The results will help you decide how hot, cold, wet, or windy it might be!

Date:

Astronomy

Oct. 17, 2012 Rise Set
Actual Time 7:31 AM PDT 6:17 PM PDT
Civil Twilight 7:00 AM PDT 6:48 PM PDT
Nautical Twilight 6:25 AM PDT 7:23 PM PDT
Astronomical Twilight 5:50 AM PDT 7:59 PM PDT
Moon 10:24 AM PDT (10/17) 7:45 PM PDT (10/17)
Length of Visible Light 11h 47m
Length of Day
10h 45m
Waxing Crescent, 8% of the Moon is Illuminated
Oct 17
Waxing Crescent
Oct 21
First Quarter
Oct 29
Full
Nov 6
Last Quarter
Nov 13
New

Hourly Weather History & Observations

Time (PDT) Temp. Windchill Dew Point Humidity Pressure Visibility Wind Dir Wind Speed Gust Speed Precip Events Conditions
12:58 AM 42.6 °F - 41.0 °F 94% 30.31 in 10.0 mi Calm Calm - N/A   Clear
1:58 AM 40.1 °F - 39.4 °F 97% 30.32 in 10.0 mi Calm Calm - N/A   Clear
2:28 AM 39.2 °F - 39.2 °F 100% 30.30 in 2.0 mi Calm Calm - N/A   Clear
2:33 AM 39.2 °F - 39.2 °F 100% 30.30 in 2.5 mi Calm Calm - N/A   Clear
2:38 AM 37.4 °F - 37.4 °F 100% 30.31 in 8.0 mi Calm Calm - N/A   Clear
2:48 AM 37.4 °F - 37.4 °F 100% 30.31 in 1.8 mi Calm Calm - N/A   Clear
2:53 AM 39.2 °F - 37.4 °F 93% 30.30 in 0.8 mi Calm Calm - N/A   Clear
2:58 AM 37.4 °F - 37.4 °F 100% 30.32 in 0.8 mi Calm Calm - N/A   Clear
3:03 AM 37.4 °F - 37.4 °F 100% 30.30 in 1.0 mi Calm Calm - N/A   Clear
3:08 AM 39.2 °F - 37.4 °F 93% 30.30 in 1.0 mi Calm Calm - N/A   Clear
3:18 AM 37.4 °F - 37.4 °F 100% 30.29 in 1.2 mi Calm Calm - N/A   Clear
3:23 AM 39.2 °F - 39.2 °F 100% 30.29 in 2.5 mi Calm Calm - N/A   Clear
3:28 AM 39.2 °F - 39.2 °F 100% 30.29 in 7.0 mi Calm Calm - N/A   Clear
3:48 AM 39.2 °F - 37.4 °F 93% 30.29 in 10.0 mi Calm Calm - N/A   Mostly Cloudy
3:58 AM 39.6 °F - 39.4 °F 99% 30.31 in 10.0 mi Calm Calm - N/A   Mostly Cloudy
4:58 AM 43.2 °F - 41.9 °F 95% 30.32 in 10.0 mi Calm Calm - N/A   Overcast
5:58 AM 41.5 °F - 40.3 °F 95% 30.33 in 10.0 mi Calm Calm - N/A   Overcast
6:28 AM 39.2 °F - 39.2 °F 100% 30.30 in 10.0 mi Calm Calm - N/A   Mostly Cloudy
6:44 AM 39.2 °F - 39.2 °F 100% 30.31 in 10.0 mi Calm Calm - N/A   Mostly Cloudy
6:49 AM 39.2 °F - 39.2 °F 100% 30.31 in 10.0 mi Calm Calm - N/A   Mostly Cloudy
6:54 AM 39.2 °F - 39.2 °F 100% 30.31 in 10.0 mi Calm Calm - N/A   Mostly Cloudy
6:58 AM 39.6 °F - 39.4 °F 99% 30.33 in 10.0 mi Calm Calm - N/A   Overcast
7:03 AM 39.2 °F - 39.2 °F 100% 30.30 in 10.0 mi Calm Calm - N/A   Overcast
7:33 AM 41.0 °F - 39.2 °F 93% 30.30 in 10.0 mi Calm Calm - N/A   Overcast
7:38 AM 41.0 °F - 39.2 °F 93% 30.31 in 10.0 mi Calm Calm - N/A   Overcast
7:58 AM 41.5 °F - 39.6 °F 93% 30.34 in 10.0 mi Calm Calm - N/A   Mostly Cloudy
8:03 AM 41.0 °F - 39.2 °F 93% 30.32 in 10.0 mi Calm Calm - N/A   Overcast
8:43 AM 42.8 °F - 41.0 °F 93% 30.31 in 10.0 mi Calm Calm - N/A   Overcast
8:58 AM 43.9 °F - 41.7 °F 92% 30.33 in 10.0 mi Calm Calm - N/A   Overcast
9:08 AM 44.6 °F - 42.8 °F 93% 30.32 in 10.0 mi Calm Calm - N/A   Mostly Cloudy
9:58 AM 47.5 °F - 41.5 °F 80% 30.34 in 10.0 mi Calm Calm - N/A   Overcast
10:58 AM 50.0 °F - 41.2 °F 72% 30.35 in 10.0 mi Calm Calm - N/A   Overcast
11:58 AM 53.1 °F - 41.5 °F 65% 30.33 in 10.0 mi Calm Calm - N/A   Mostly Cloudy
12:58 PM 56.3 °F - 41.5 °F 58% 30.32 in 10.0 mi Calm Calm - N/A   Clear
1:58 PM 57.9 °F - 41.9 °F 55% 30.28 in 10.0 mi Calm Calm - N/A   Clear
2:58 PM 58.6 °F - 44.1 °F 58% 30.27 in 10.0 mi WNW 3.5 mph - N/A   Clear
3:58 PM 57.0 °F - 43.0 °F 59% 30.27 in 10.0 mi NNW 6.9 mph - N/A   Scattered Clouds
4:58 PM 57.0 °F - 41.0 °F 55% 30.26 in 10.0 mi NNE 3.5 mph - N/A   Partly Cloudy
5:58 PM 55.8 °F - 40.6 °F 57% 30.25 in 10.0 mi NE 5.8 mph - N/A   Mostly Cloudy
6:58 PM 50.7 °F - 40.6 °F 68% 30.24 in 10.0 mi NE 2.3 mph - N/A   Scattered Clouds
7:58 PM 51.6 °F - 42.3 °F 70% 30.25 in 10.0 mi Calm Calm - N/A   Overcast
8:58 PM 47.5 °F - 43.0 °F 84% 30.25 in 10.0 mi SSE 2.3 mph - N/A   Partly Cloudy
9:58 PM 45.5 °F 44.2 °F 41.9 °F 87% 30.24 in 10.0 mi South 3.5 mph - N/A   Clear
10:58 PM 45.1 °F - 41.7 °F 88% 30.24 in 10.0 mi Calm Calm - N/A   Clear
11:58 PM 42.3 °F - 40.8 °F 95% 30.24 in 10.0 mi NW 1.2 mph - N/A   Clear